Miscellaneous Local Product
Issued by NWS Hastings, NE

Home | Current Version | Previous Version | Text Only | Print | Product List | Glossary Off
Versions: 1 2 3 4 5 6 7 8 9 10 11 12 13 14 15 16 17 18 19 20 21 22 23 24 25 26 27 28 29 30 31 32 33 34 35 36 37 38 39 40 41 42 43 44 45 46 47 48 49 50

000
AXUS43 KGID 290002
MISGRI

GID CWA HOURLY WEATHER ROUNDUP
NATIONAL WEATHER SERVICE HASTINGS NE
700 PM CDT SUN SEP 28 2014

NOTE: "FAIR" INDICATES FEW OR NO CLOUDS BELOW 12,000 FEET WITH NO
SIGNIFICANT WEATHER AND/OR OBSTRUCTIONS TO VISIBILITY.

...SOUTH CENTRAL NEBRASKA...

CITY           SKY/WX    TMP DP  RH WIND       PRES   REMARKS
GRAND ISLAND   PTCLDY    76  61  59 SE7       30.05R
HASTINGS       PTCLDY    78  56  46 SE9       30.05R
KEARNEY        PTCLDY    75  55  50 SE8       30.05R
ORD            PTCLDY    77  58  51 SE8       30.02S
YORK           CLEAR     75  61  60 S5        30.05S
AURORA         CLEAR     74  58  58 SE5       30.05S
LEXINGTON      PTCLDY    78  56  46 SE9       30.03R
HOLDREGE       PTCLDY    76  55  47 SE10      30.04R
HEBRON         PTCLDY    76  56  49 SE5       30.05R

...NEBRASKA PANHANDLE...

CITY           SKY/WX    TMP DP  RH WIND       PRES   REMARKS
CHADRON        CLOUDY    54  51  90 NE16      30.12R
ALLIANCE       MOCLDY    64  52  64 NE24      30.03R
SCOTTSBLUFF    PTCLDY    64  52  64 NE20G33   30.02R
SIDNEY         MOCLDY    77  50  38 SE14      30.00S

...WESTERN AND NORTH CENTRAL NEBRASKA...

CITY           SKY/WX    TMP DP  RH WIND       PRES   REMARKS
VALENTINE      MOCLDY    71  57  61 N10G21    30.05R
AINSWORTH      CLOUDY    76  56  50 S6        30.03S
ONEILL         CLEAR     76  61  59 SE5       30.03S
BROKEN BOW     PTCLDY    77  59  53 SE7       30.04S
IMPERIAL       CLEAR     79  50  36 SE17      29.99R
NORTH PLATTE   PTCLDY    78  53  41 SE9       30.00S
MCCOOK         CLEAR     80  51  36 SE12G21   30.00S

...EASTERN NEBRASKA...

CITY           SKY/WX    TMP DP  RH WIND       PRES   REMARKS
NORFOLK        CLEAR     75  61  61 SE5       30.03S
SO SIOUX CITY  PTCLDY    77  60  55 S6        30.02F
TEKAMAH        CLEAR     78  59  51 SE6       30.04S
COLUMBUS       CLEAR     75  61  60 S6        30.04S
ALBION         CLEAR     74  59  58 S3        30.04R
OMAHA EPPLEY   PTCLDY    78  60  53 SE6       30.05R
OFFUTT AFB     CLEAR     76  63  65 SE6       30.04S
MILLARD        CLEAR     77  62  58 SE5       30.04S
LINCOLN        CLEAR     78  58  49 SE9       30.05R
NEBRASKA CITY  CLEAR     76  53  44 SE5       30.06S
BEATRICE       CLEAR     77  58  52 S3        30.05R
FALLS CITY     CLEAR     77  57  50 SE3       30.05S

...NORTHERN KANSAS...

CITY           SKY/WX    TMP DP  RH WIND       PRES   REMARKS
GOODLAND       PTCLDY    77  51  40 S20       30.00R
HILL CITY      CLEAR     80  54  40 SE16G23   30.01S
NORTON         CLEAR     79  50  36 SE13      30.01
PHILLIPSBURG   CLEAR     81  54  39 SE9       30.02R
SMITH CENTER   CLEAR     79  54  41 SE12      30.03S
BELOIT         CLEAR     79  55  44 SE9       30.03R
HAYS           CLEAR     79  55  44 SE15      30.03S
RUSSELL        MOCLDY    76  56  49 S8        30.03S
CONCORDIA      CLEAR     75  61  61 SE6       30.05R
SALINA         CLEAR     78  58  49 SE8       30.05S
TOPEKA         CLEAR     79  56  45 E6        30.06S



USA.gov is the U.S. government's official web portal to all federal, state and local government web resources and services.